Wind_Speed
75 76 78 80 81 83 85 88 90 92 95 98 98 98 99 101 103 105 107 110 113 116 120 125 130 134 138 143 145 146 144 140 137 132 125 122 123 122 120 118 115 110 107 103 100 96 92 88 84 81 79 77 75 73 71 70 69 69 68 68 69 69 69 68 67 66 65 63 63 62 61 60 60 61 61 61 61 61 63 64 66 68 70 72 74
76 78 79 81 83 85 87 89 90 93 96 97 96 98 100 102 104 106 109 112 116 120 124 129 133 137 141 145 147 147 144 140 137 130 123 122 123 121 119 117 113 109 106 103 99 95 91 86 83 79 77 75 74 72 71 71 70 70 69 68 67 66 66 65 64 62 62 61 60 59 58 57 55 55 56 57 57 57 58 60 61 63 65 67 68
77 79 81 83 85 86 87 89 91 95 96 95 96 100 102 103 106 108 111 115 119 123 127 132 136 140 144 147 149 148 144 141 136 127 122 123 122 120 118 115 111 107 105 101 97 93 89 85 81 78 76 74 73 72 71 71 71 71 70 68 66 65 64 62 61 59 58 58 58 57 56 55 53 51 50 51 53 53 54 54 56 57 59 60 62
78 80 82 84 85 86 87 90 93 95 94 95 99 102 103 105 107 110 114 117 121 126 130 134 139 143 146 149 151 149 145 141 134 125 122 123 121 119 117 112 108 106 103 99 96 92 88 84 80 78 75 73 72 71 71 72 72 71 70 68 67 65 63 61 59 57 56 54 54 54 53 53 52 51 49 47 48 50 51 51 51 51 53 55 56
79 81 83 84 84 86 88 91 93 94 94 97 100 102 104 107 109 113 117 120 124 128 133 137 141 145 149 152 152 149 145 140 132 123 122 122 120 118 115 110 106 104 101 97 94 90 86 83 80 77 75 73 71 71 72 72 72 72 70 68 67 65 63 60 58 56 53 52 51 51 50 49 48 49 49 47 45 45 47 49 49 48 47 49 52
80 82 83 83 85 87 90 92 94 94 95 98 101 103 106 109 112 115 119 122 127 131 135 139 143 148 151 153 153 149 144 139 129 122 122 122 119 117 113 107 105 102 99 96 92 88 85 82 79 77 75 73 72 72 73 73 73 72 70 69 68 66 64 61 59 56 53 50 49 48 48 47 46 45 45 46 45 44 43 44 46 46 45 45 48
81 82 82 84 86 88 90 93 94 94 96 100 103 106 109 111 114 118 121 125 129 132 137 141 145 150 153 155 153 149 144 137 127 122 122 121 119 116 111 106 104 101 98 94 90 87 84 81 78 76 74 73 72 72 73 74 73 72 70 69 68 68 66 63 61 58 55 52 49 47 46 46 45 43 41 41 41 42 42 42 43 44 43 42 44
81 82 83 85 87 89 91 93 94 95 99 103 106 109 111 113 117 120 123 127 130 134 138 142 147 152 155 156 154 149 144 136 126 122 123 122 119 115 109 105 103 100 96 92 88 85 82 79 77 74 72 71 70 70 72 73 73 72 71 70 69 69 67 65 62 60 57 55 52 50 48 46 45 43 41 39 37 36 37 38 41 42 42 40 40
81 82 83 86 88 90 93 94 95 98 101 104 108 111 113 116 119 122 125 129 132 136 140 144 149 153 156 157 154 149 144 135 125 123 124 122 119 114 108 105 102 98 94 90 86 82 79 77 75 73 72 70 69 68 69 70 71 72 72 72 71 70 68 66 64 61 58 56 54 52 49 47 45 43 42 41 39 36 35 34 35 38 40 40 38
82 83 84 87 89 92 94 95 96 100 103 106 110 113 115 118 121 123 127 130 133 137 141 145 151 155 158 158 154 149 144 133 125 125 125 123 119 114 108 105 102 98 94 89 85 81 77 74 73 71 70 70 69 69 69 69 69 69 70 71 71 70 69 66 64 61 58 55 53 52 50 48 44 41 40 39 37 35 34 33 32 33 34 36 37
83 83 85 88 90 94 96 96 98 101 104 108 112 114 117 119 122 125 128 131 135 138 142 147 152 156 159 159 154 149 143 132 125 126 126 123 119 113 108 106 102 97 93 88 83 80 76 73 71 70 69 68 68 68 68 68 68 68 68 68 69 69 68 67 65 62 59 55 53 51 50 49 47 44 41 39 38 36 34 32 31 31 30 31 33
83 84 86 89 92 95 97 97 99 102 105 110 113 115 118 121 123 126 129 132 136 139 144 149 154 158 160 158 154 149 141 130 126 127 126 123 119 113 108 105 101 97 92 87 82 78 74 71 69 67 66 65 65 65 65 65 66 68 68 67 67 66 66 66 64 62 60 57 55 52 50 49 48 47 45 43 41 39 37 35 32 30 29 28 29
83 85 87 90 93 96 97 98 100 102 107 111 114 117 119 122 124 127 130 133 137 140 145 151 155 159 160 158 152 147 139 128 126 128 126 123 118 112 108 105 100 96 91 86 82 77 73 69 66 64 63 63 63 63 64 64 64 65 67 67 67 66 65 65 63 62 60 58 56 53 51 48 46 45 45 44 42 40 39 38 36 33 31 29 28
84 85 87 91 95 97 98 99 101 104 109 113 115 118 120 122 125 128 131 134 138 142 147 152 156 159 160 156 151 145 136 127 126 128 125 122 117 111 107 103 98 94 90 85 81 77 72 68 64 62 60 60 60 60 61 62 62 61 62 64 65 66 65 64 64 63 62 60 57 54 51 49 46 42 40 39 39 37 36 35 35 34 32 31 30
84 85 88 92 96 97 98 100 102 106 111 114 116 118 120 123 126 129 132 135 139 143 148 153 157 159 158 154 149 143 133 125 126 127 124 121 116 109 105 102 96 92 88 84 80 77 73 69 66 62 60 58 57 57 57 58 59 60 59 58 59 61 62 63 62 62 61 59 56 54 51 49 46 43 40 37 35 34 33 31 29 29 28 28 27
84 86 89 93 96 97 99 101 103 108 112 115 116 118 120 123 126 129 133 136 140 144 149 153 156 158 157 152 147 141 131 125 126 127 123 120 114 108 104 100 95 90 86 82 79 76 73 71 68 65 63 59 57 56 56 56 57 59 59 58 56 55 55 56 58 59 59 58 56 54 51 48 46 44 42 40 37 35 34 32 30 28 28 27 27
84 86 90 94 96 97 100 102 105 110 113 115 116 118 121 124 127 130 133 136 140 145 149 153 156 157 155 150 146 139 129 124 126 126 123 119 114 108 104 99 94 89 84 80 77 74 72 70 68 67 65 62 60 58 57 57 57 58 60 61 60 58 55 54 55 56 56 56 56 55 53 51 48 46 45 43 42 39 38 36 35 33 30 29 28
85 87 91 94 96 98 100 103 107 111 114 115 116 119 122 125 128 130 133 137 141 145 149 153 155 156 153 149 144 137 127 124 127 126 123 119 113 108 104 99 94 89 84 80 76 73 71 69 67 65 64 63 61 59 58 57 57 57 58 60 61 62 61 60 58 57 56 56 55 54 54 53 52 50 48 46 45 44 41 39 37 36 35 32 30
85 88 93 94 95 98 101 104 109 112 114 115 117 119 122 125 127 130 133 137 141 145 149 152 154 154 151 147 142 134 126 125 128 126 123 119 113 107 104 99 94 90 86 82 77 73 70 68 66 63 62 61 61 60 58 57 55 55 55 56 58 60 62 62 60 58 57 57 56 55 54 54 53 52 51 49 47 46 45 43 40 37 36 35 34
86 90 93 94 95 99 102 105 110 113 114 115 117 119 122 125 127 130 133 138 141 145 149 151 153 152 148 145 140 131 125 126 128 125 123 119 112 107 103 98 93 89 85 82 78 74 71 68 66 64 61 60 60 60 59 57 55 53 52 52 53 55 57 59 59 58 57 56 56 55 54 54 53 53 53 52 50 47 46 45 44 41 38 36 34
86 91 93 93 96 99 102 107 111 113 114 115 117 120 122 125 127 130 134 138 141 145 148 150 151 149 146 143 137 128 124 126 127 124 122 118 111 105 102 97 92 88 84 80 76 73 70 68 65 63 61 60 60 60 59 58 56 52 50 49 49 49 51 54 56 58 58 57 57 56 56 56 55 55 54 54 52 50 47 45 43 42 40 38 35
87 91 92 93 96 99 103 108 111 112 114 115 117 120 122 125 128 131 135 138 141 144 147 149 149 146 143 140 134 126 123 126 126 123 121 116 109 103 99 95 90 86 82 78 75 71 69 66 64 62 60 59 58 57 57 57 56 54 51 49 47 47 47 49 52 55 57 59 58 58 58 58 58 57 56 54 53 52 50 47 43 40 39 38 36
88 91 92 94 96 100 105 109 111 112 113 115 117 120 122 125 128 131 135 138 141 144 146 147 146 144 141 137 130 123 123 126 124 122 120 114 107 101 97 92 87 83 80 76 72 70 67 64 62 60 58 57 57 56 54 54 54 54 52 50 48 47 46 47 48 51 53 56 58 59 58 58 57 57 56 54 53 51 50 49 46 43 40 39 37
89 91 92 94 97 101 107 110 111 112 113 115 117 120 122 125 128 132 135 138 140 142 144 145 144 141 138 134 127 121 122 125 123 121 119 112 105 100 95 90 85 81 78 74 71 68 66 63 61 59 57 55 55 55 54 52 50 50 51 50 49 48 47 47 47 48 49 52 54 57 57 56 55 55 55 53 51 49 48 48 48 46 44 41 39
89 91 93 95 99 104 108 110 111 111 113 115 117 119 122 125 128 132 135 137 139 141 143 143 141 138 136 132 123 119 122 124 122 120 117 110 103 98 94 89 84 81 77 74 71 67 65 63 62 60 58 56 55 54 54 52 50 49 49 49 49 48 47 47 47 47 47 48 49 51 53 54 53 52 52 53 52 51 50 50 49 48 47 44 42
90 91 93 96 102 106 108 109 110 111 112 115 117 119 122 125 128 132 134 136 138 140 142 142 140 137 135 129 121 119 122 123 121 119 116 109 101 97 94 89 85 81 78 74 71 68 65 64 62 61 59 57 55 53 53 53 51 50 49 49 49 48 47 47 47 47 46 46 45 45 47 49 51 52 51 51 53 53 53 52 51 50 48 47 45
90 92 94 99 104 107 108 109 109 110 113 115 116 119 122 125 129 132 134 136 137 139 141 141 138 136 133 125 119 119 122 122 120 119 116 109 101 98 95 91 87 84 80 76 73 70 67 64 62 61 59 57 55 52 51 52 52 52 51 50 50 49 48 46 46 46 45 45 44 44 43 45 47 50 51 51 51 52 52 52 51 50 49 48 46
91 92 96 101 105 107 107 108 109 110 113 114 116 119 122 125 129 132 133 135 137 139 140 139 136 134 130 122 117 119 122 121 120 118 115 108 102 98 96 91 88 85 82 78 74 71 68 65 63 61 60 59 58 56 54 53 53 53 52 51 51 51 51 49 47 46 46 45 44 44 44 44 44 45 48 49 50 50 50 51 50 49 48 48 47
91 93 98 102 105 106 107 107 109 110 112 114 116 119 122 125 129 131 132 134 136 138 140 137 134 133 127 119 116 119 121 120 119 117 113 105 99 96 94 90 87 84 81 78 75 72 69 66 64 62 61 60 60 59 58 56 54 53 53 52 51 51 51 51 50 48 47 46 45 44 44 44 44 43 44 45 47 48 49 49 50 49 48 47 45
92 95 99 103 105 106 106 107 108 110 112 113 116 119 122 126 128 130 131 133 135 138 139 135 133 130 123 116 116 120 121 119 117 115 110 102 96 94 92 88 85 83 81 78 75 73 70 67 64 62 60 59 59 58 57 56 55 54 53 52 51 50 50 50 51 50 49 47 46 44 43 42 43 43 42 42 43 45 46 46 47 48 48 48 46
93 96 100 103 105 105 106 107 109 110 111 113 116 119 122 126 128 129 131 133 135 138 137 134 132 127 118 114 116 119 120 118 116 114 109 100 94 92 90 86 84 82 80 78 76 73 70 68 65 62 60 58 57 56 55 54 54 53 52 51 51 50 49 48 49 50 50 49 47 45 43 41 41 42 42 42 41 41 42 43 44 45 47 47 47
94 97 101 104 104 105 106 107 109 110 111 113 116 119 123 125 127 128 131 132 136 138 135 132 129 122 114 112 115 118 118 116 114 113 107 99 93 91 88 85 83 81 79 77 75 72 70 67 65 63 61 58 57 55 54 53 52 52 51 51 50 50 48 47 47 46 47 48 48 46 45 42 40 39 40 41 41 40 40 41 42 43 44 45 45
95 99 102 103 104 105 106 107 109 109 111 113 116 120 123 125 126 128 130 133 136 137 134 130 126 117 110 111 115 116 116 115 114 112 107 98 93 91 88 84 81 79 76 75 73 71 70 68 65 63 61 59 57 56 55 54 52 51 50 50 49 49 48 47 46 45 45 45 46 46 46 44 42 39 38 38 40 40 40 39 39 40 41 42 44
97 100 102 103 104 105 106 107 108 109 111 113 116 120 123 123 125 128 130 133 135 135 132 129 122 112 107 111 114 115 115 114 113 111 105 97 93 92 89 85 81 77 74 73 71 70 69 68 66 64 62 59 58 56 55 54 53 52 51 50 49 49 49 48 47 46 45 45 44 45 45 45 43 41 38 37 38 39 40 39 38 38 39 40 41
98 100 102 103 105 105 106 106 107 108 111 113 117 120 122 123 125 128 130 133 135 133 130 125 116 108 107 110 113 114 113 112 111 109 102 94 91 91 89 86 82 79 76 73 71 69 68 67 66 64 62 60 58 56 55 54 53 52 51 51 50 50 49 49 49 47 46 45 44 44 44 44 43 42 39 37 36 37 38 39 39 38 37 37 38
99 101 103 104 105 105 105 105 106 108 111 113 116 119 121 123 125 127 129 133 133 131 128 121 110 104 107 110 111 112 111 109 108 106 98 90 88 89 87 85 82 80 78 76 73 71 69 67 66 64 63 61 59 57 55 54 54 52 52 51 50 49 49 49 49 48 47 46 45 44 44 44 44 43 41 38 36 34 35 36 38 37 36 35 35
100 102 104 104 104 104 104 104 106 108 110 113 116 118 120 123 125 126 129 132 132 129 125 115 104 102 106 109 109 110 108 106 106 102 94 87 85 85 84 82 81 79 78 76 75 73 70 68 66 65 63 62 61 59 57 55 54 53 52 51 51 50 49 48 48 48 47 47 46 45 44 43 44 44 42 40 37 34 33 33 35 36 36 35 34
101 103 103 103 102 103 103 104 105 108 110 113 116 118 120 122 124 126 129 131 130 127 120 109 101 102 106 108 108 108 107 105 104 101 93 85 82 83 83 82 80 78 77 76 75 73 71 69 67 66 64 63 62 60 58 57 56 55 54 53 51 51 50 49 48 47 46 46 46 46 45 43 43 43 43 41 39 35 33 31 32 33 34 35 34
102 103 102 102 102 102 102 103 105 107 110 113 115 117 120 122 123 126 129 130 128 124 114 103 99 102 106 107 108 107 106 105 105 101 94 86 82 83 83 82 80 78 77 76 75 74 72 70 68 67 65 64 63 61 59 58 57 56 55 54 53 51 51 50 49 48 47 46 46 46 45 44 42 42 42 41 40 36 33 31 30 30 32 33 33
103 102 101 101 102 101 101 103 105 107 109 112 115 117 120 121 123 127 128 128 126 119 107 98 98 102 105 106 107 106 106 105 104 101 94 86 83 83 83 81 79 77 76 76 76 74 73 71 69 68 66 65 64 62 61 59 57 56 55 54 54 53 52 50 49 48 47 46 45 44 45 45 43 42 40 40 39 38 34 31 28 28 29 30 30
103 101 101 101 100 100 100 102 104 106 109 112 115 117 119 121 123 126 127 126 122 112 99 94 97 101 103 104 105 104 104 104 103 99 92 85 82 82 82 80 78 76 75 75 75 75 74 73 70 68 67 65 65 63 62 60 58 57 55 55 54 53 53 52 50 49 48 47 45 44 43 43 43 43 41 40 39 38 36 32 28 26 26 27 28
101 100 100 99 98 98 100 101 104 107 110 112 115 117 118 121 124 126 125 123 117 105 94 93 97 99 101 102 102 102 102 102 101 97 90 83 80 81 80 79 77 74 73 73 73 74 74 73 72 70 67 66 65 64 63 61 60 58 57 56 55 54 53 53 52 51 49 47 46 45 43 42 42 42 42 41 39 38 37 34 30 26 24 24 25
101 99 99 97 96 97 99 101 104 107 109 112 115 116 118 121 124 124 123 120 110 97 91 93 97 98 100 101 100 100 101 100 99 96 89 82 79 79 79 78 76 74 72 72 72 72 73 73 72 71 69 67 66 64 63 62 61 60 58 57 56 55 54 53 52 52 50 49 47 45 44 42 41 40 40 40 40 39 38 35 32 29 25 24 24
99 97 96 94 94 96 99 102 105 107 109 112 114 116 118 121 123 122 120 114 101 91 90 94 97 98 99 99 99 99 100 99 98 95 88 81 78 79 79 78 76 74 72 71 71 71 72 72 72 71 70 68 66 65 64 62 61 60 59 58 57 56 54 53 52 51 50 50 48 46 44 43 41 40 39 39 38 38 38 36 35 32 28 25 23
96 93 91 91 93 96 99 102 104 107 109 112 114 116 119 121 121 120 116 106 93 87 90 94 95 97 98 98 98 99 99 99 98 94 87 80 78 78 79 78 77 74 72 71 71 71 71 71 71 70 69 67 66 64 63 62 61 59 58 57 57 56 55 54 52 51 50 49 49 48 46 44 42 40 38 37 37 36 36 36 35 34 31 27 24
91 88 88 91 94 97 100 102 104 107 110 112 113 116 119 120 119 117 109 97 87 87 91 93 94 96 97 97 98 99 98 98 97 93 86 80 78 78 79 79 77 75 73 71 71 71 71 70 70 69 68 66 65 63 62 61 60 59 57 56 56 55 55 54 53 52 51 50 49 48 47 46 44 41 39 37 36 35 34 34 34 34 32 29 25
85 85 88 91 94 97 100 102 104 107 110 111 114 117 118 118 116 111 100 88 84 87 91 92 93 95 95 96 97 98 97 97 96 92 85 80 78 78 79 79 78 76 74 73 71 71 71 70 70 69 67 66 64 63 62 61 60 59 58 57 56 56 56 55 54 54 53 51 51 50 49 48 47 44 41 38 36 35 33 33 32 32 32 30 27
82 85 89 92 94 97 100 102 105 107 109 111 115 117 116 115 112 103 90 83 84 88 90 91 92 93 94 95 96 96 96 97 95 91 84 79 77 78 79 79 78 77 75 73 72 72 71 70 70 68 67 66 65 63 62 62 61 61 60 59 59 58 57 57 56 55 54 53 52 51 50 49 48 47 45 42 39 35 33 32 31 30 30 30 28
82 86 89 92 95 98 100 102 105 107 109 112 115 115 114 111 104 92 82 81 85 88 89 90 92 92 93 95 96 96 96 96 94 90 83 78 77 78 79 79 78 77 75 74 73 72 71 71 70 68 67 66 65 65 64 63 63 63 62 62 61 60 59 58 57 55 54 53 52 50 49 48 47 47 45 44 41 38 34 32 30 30 29 29 29
83 87 90 93 95 98 100 103 105 106 110 113 113 112 111 105 94 83 79 82 85 87 88 90 90 91 92 94 95 95 95 95 93 89 82 78 77 78 79 79 79 77 76 74 74 73 72 71 70 69 68 67 66 66 65 64 64 63 62 62 61 60 59 58 57 55 54 53 52 50 48 47 46 45 44 43 42 40 36 33 30 29 28 28 27
84 87 90 93 96 98 101 103 104 107 111 112 111 109 105 96 84 77 78 82 85 86 88 89 89 90 92 93 94 94 94 94 92 87 81 77 77 78 79 80 79 77 76 75 74 74 73 72 71 69 68 67 67 66 65 64 63 62 61 59 58 58 57 56 56 55 54 52 51 50 49 47 45 45 44 42 41 40 38 34 31 28 27 27 26
Wind_Direction
314 314 314 315 316 316 316 316 317 318 319 320 321 323 323 324 324 326 327 328 330 331 333 335 336 337 337 337 337 337 337 336 335 334 333 332 331 331 330 329 329 328 328 328 327 327 327 326 325 325 324 323 322 322 322 322 322 322 322 321 320 318 316 313 311 310 308 306 303 301 298 295 293 290 288 285 282 278 275 272 270 267 266 264 263
314 314 315 316 317 317 317 318 319 320 321 322 323 324 324 325 326 328 329 331 333 334 336 337 337 338 338 338 338 338 338 337 336 335 333 333 332 332 331 331 330 330 330 329 329 329 328 328 327 326 326 325 325 325 326 326 327 327 326 325 323 321 319 317 315 313 311 309 306 304 301 298 295 292 290 287 284 281 278 275 272 270 267 266 264
314 315 316 317 318 318 319 320 321 322 323 324 325 325 326 327 328 330 331 333 335 336 338 338 338 338 338 339 339 339 339 338 337 336 334 334 333 333 333 332 332 331 331 331 331 330 330 329 329 328 328 327 328 328 329 329 330 329 329 328 326 325 323 321 320 318 316 313 310 308 305 303 299 296 293 290 287 284 280 278 275 273 271 269 266
315 316 317 318 319 320 321 322 323 324 324 325 325 326 327 329 330 332 334 335 337 338 338 339 339 339 339 339 340 340 339 339 338 336 335 335 334 334 334 334 333 333 332 332 332 332 331 331 330 330 329 329 330 330 331 332 332 332 332 331 330 329 328 326 324 323 321 318 314 311 309 307 305 301 298 294 291 289 286 282 279 276 274 272 270
316 317 318 319 320 322 323 324 324 325 325 326 326 328 329 331 333 334 336 337 338 339 339 339 339 339 339 340 341 340 340 339 338 337 336 336 336 336 335 335 334 334 334 333 333 333 332 332 332 331 331 331 332 332 333 334 335 335 335 334 333 333 331 330 329 328 326 323 319 316 312 310 308 306 303 300 295 292 290 287 284 281 277 275 273
316 317 319 321 322 324 324 325 325 326 326 327 329 331 332 333 334 336 337 338 339 339 339 339 339 339 340 341 341 341 340 340 338 337 337 337 337 337 336 336 335 335 335 335 334 334 334 333 333 332 333 333 334 335 335 336 337 337 337 337 336 336 335 334 334 333 331 328 324 321 318 315 313 311 309 306 302 298 294 290 288 285 282 278 275
316 318 320 322 324 325 326 326 326 326 327 329 331 333 334 334 336 337 338 339 339 339 339 339 339 340 341 341 341 341 341 340 339 338 338 339 338 338 337 337 337 336 336 336 336 335 334 334 333 333 334 335 336 337 337 337 338 338 339 339 339 339 339 338 338 337 335 333 330 326 323 321 318 315 312 309 306 302 299 295 292 289 285 282 279
318 320 321 323 325 326 326 326 326 327 328 331 333 334 334 336 337 338 339 339 339 339 339 339 339 340 341 341 342 342 341 340 339 339 340 340 339 339 338 338 338 338 337 337 336 336 335 334 334 334 335 336 337 337 338 339 339 340 340 341 342 342 342 341 341 340 339 337 334 331 329 326 324 320 317 313 309 304 300 298 295 292 289 284 280
319 321 322 324 326 326 327 326 326 327 330 332 333 334 335 336 337 338 339 339 339 339 339 339 339 340 341 342 342 342 342 341 340 340 341 340 340 339 339 339 339 339 338 338 337 336 335 335 335 335 336 336 337 338 339 340 341 342 343 343 344 344 344 344 344 343 341 339 337 335 332 331 329 327 324 321 317 313 307 302 298 296 294 290 286
320 321 323 325 326 327 327 326 326 328 330 332 333 334 336 337 338 339 339 339 339 339 339 339 339 340 342 342 342 342 342 341 341 341 341 341 341 340 340 340 340 340 339 338 338 337 336 336 336 336 336 337 337 339 340 341 342 344 345 345 345 345 346 346 346 345 343 342 340 338 336 334 333 331 328 324 320 317 313 309 303 298 295 293 291
320 321 323 326 327 327 326 326 327 328 330 331 333 334 336 337 338 339 339 339 338 338 339 339 340 341 342 342 342 342 342 341 341 342 342 342 341 341 341 341 341 340 340 339 338 338 337 337 337 337 337 337 338 339 340 341 343 345 346 347 346 346 347 348 348 346 345 344 343 342 340 339 337 335 332 330 328 325 321 316 311 306 300 296 293
320 322 324 326 327 327 326 326 327 328 329 331 332 334 336 337 338 339 338 338 338 338 338 339 340 341 342 342 342 343 342 342 342 343 343 342 342 342 342 342 341 341 340 340 339 338 338 338 338 337 337 337 337 338 340 342 344 346 347 347 347 348 349 349 349 348 348 348 346 345 344 343 341 339 337 336 334 331 328 324 320 314 308 302 297
321 322 324 326 327 327 326 326 327 327 329 331 333 335 337 338 338 338 338 338 338 338 339 339 340 341 342 342 342 343 342 342 342 343 343 343 343 342 342 342 342 341 341 340 339 339 339 338 338 338 337 337 337 338 340 342 346 348 348 348 348 349 350 350 350 350 351 351 350 348 347 346 345 343 340 338 337 335 332 329 326 323 319 313 306
321 322 323 325 327 326 326 326 326 327 329 331 333 335 337 338 338 338 338 338 338 338 339 340 341 341 342 342 342 342 342 342 343 343 343 343 343 343 342 342 342 342 341 340 339 339 339 339 339 339 339 338 338 339 340 342 346 349 350 350 350 350 351 352 352 353 353 353 352 351 349 348 347 345 343 340 338 337 335 333 329 327 324 320 316
321 321 323 325 326 326 326 326 326 328 330 332 334 336 337 338 338 338 338 338 338 338 339 340 341 341 342 342 342 342 342 342 343 344 343 343 343 343 343 343 343 342 342 340 340 339 339 339 340 340 340 340 339 340 341 343 345 347 349 351 353 353 353 353 354 355 355 355 354 353 352 351 349 347 346 344 341 339 336 334 331 328 326 323 319
320 321 323 325 326 326 327 326 327 328 331 333 334 336 337 338 338 338 338 338 338 338 339 340 340 341 342 342 342 342 342 342 343 344 344 344 344 343 343 343 343 343 342 341 340 340 340 340 341 341 341 341 341 341 342 343 344 346 347 350 353 354 354 354 356 357 357 356 355 354 354 354 353 351 350 348 347 345 342 340 337 336 335 333 329
320 320 323 325 326 326 327 326 327 329 331 333 335 336 337 337 337 337 337 337 338 338 339 340 340 341 341 342 342 342 342 343 343 344 344 344 344 343 343 343 343 343 343 342 341 341 342 342 342 342 342 342 343 343 343 344 345 345 346 348 350 352 354 356 358 359 359 359 358 356 356 356 356 356 355 354 353 352 351 349 347 345 344 343 340
319 320 323 325 326 326 326 327 328 330 332 334 335 336 336 337 337 337 337 337 338 339 339 340 340 341 341 341 342 342 342 343 344 344 344 345 344 344 343 343 344 344 343 343 343 343 343 343 342 342 342 342 344 344 344 345 345 345 346 348 349 350 353 356 358 359 360 0 0 360 359 359 359 359 360 359 358 356 355 355 354 351 349 348 347
318 321 323 324 325 326 326 327 329 331 333 334 335 336 336 336 336 336 337 337 338 339 339 340 340 341 341 341 342 342 342 343 344 344 345 345 344 344 344 344 344 344 344 344 344 344 343 343 343 343 342 343 344 344 345 345 344 344 344 346 347 350 352 354 356 359 360 0 1 3 3 3 2 1 1 2 2 0 358 357 356 356 354 352 350
318 321 323 324 325 326 326 328 330 331 333 334 335 335 336 336 336 336 336 337 338 339 339 340 340 340 341 341 342 342 342 343 344 345 345 345 344 344 344 344 345 345 344 344 344 344 344 344 343 343 343 344 345 345 344 344 344 343 342 343 345 348 350 351 353 356 359 0 1 2 4 6 6 5 4 3 3 3 2 360 358 357 356 355 353
318 320 322 324 325 326 327 328 330 332 333 334 335 335 335 335 336 336 336 337 338 339 339 340 340 340 341 341 341 342 342 343 344 345 345 345 344 344 344 345 345 345 344 344 344 343 344 344 344 344 344 345 346 345 344 343 343 342 341 341 342 343 346 348 351 353 356 359 1 2 3 5 7 8 7 6 4 3 3 3 2 360 358 356 355
318 320 322 323 324 325 327 329 331 332 334 334 334 334 335 335 335 336 336 337 338 339 340 340 340 340 341 341 341 342 342 343 344 345 345 345 344 344 345 345 345 345 344 344 343 343 343 344 344 345 345 345 345 345 344 343 341 341 341 340 340 340 342 345 348 351 354 357 360 2 3 5 6 8 8 8 7 5 3 3 3 3 2 360 358
318 320 321 323 324 326 327 329 331 333 333 334 334 334 334 335 335 336 337 337 338 339 340 340 340 340 340 341 341 341 342 343 344 345 345 345 344 344 345 345 346 345 344 344 343 343 343 343 344 345 346 345 344 344 344 344 342 340 340 340 340 340 341 343 346 349 353 355 357 360 2 4 5 6 7 8 8 7 6 4 4 4 5 5 3
318 319 321 323 324 326 328 330 332 333 333 333 333 333 334 334 335 336 337 338 338 339 339 340 340 340 340 341 341 341 342 343 344 345 345 345 344 344 345 345 346 345 345 344 344 343 343 343 344 346 346 346 344 343 343 344 344 342 341 340 341 341 342 342 344 347 351 354 356 357 359 2 3 4 5 6 7 8 8 7 6 6 6 7 7
317 319 321 323 325 326 328 330 332 333 333 333 333 333 333 334 335 336 337 337 338 339 339 340 340 340 340 340 340 341 342 343 344 345 345 345 344 344 345 345 346 346 346 345 344 344 343 344 345 346 347 347 346 343 342 343 345 345 344 343 343 344 344 344 344 346 348 352 354 355 356 358 1 2 3 4 5 7 8 8 8 7 7 7 8
316 318 321 324 325 326 328 331 332 332 332 332 332 332 333 334 335 336 337 337 338 339 339 339 340 339 340 340 340 341 342 343 344 345 345 345 344 344 345 346 346 347 347 346 345 345 345 346 346 346 347 347 346 345 343 342 343 346 347 346 346 346 346 346 346 346 347 348 351 353 355 356 357 360 2 3 5 6 8 9 9 8 8 8 8
316 318 321 323 324 326 329 331 332 331 331 331 331 332 333 334 335 336 336 337 338 339 339 339 339 339 339 340 340 341 343 343 344 345 345 345 344 345 346 347 348 348 348 348 347 347 347 348 347 347 346 345 346 346 345 344 344 345 348 349 348 347 348 348 347 346 346 346 348 350 353 355 357 358 360 2 4 6 7 9 10 9 9 8 8
316 318 320 322 325 327 330 331 331 331 331 331 331 332 332 333 335 335 336 337 338 339 339 339 339 339 339 339 340 341 343 344 344 345 346 345 345 346 347 348 349 349 349 349 348 348 349 349 348 348 346 346 346 347 347 347 346 345 347 349 349 349 348 348 349 348 347 347 347 348 350 353 357 359 359 0 2 4 6 7 9 10 11 9 9
316 318 320 323 325 328 330 330 330 330 330 330 330 331 332 333 334 335 336 337 338 338 339 339 339 339 339 339 340 341 343 344 345 345 346 345 345 347 348 349 349 349 349 349 349 349 349 350 349 349 348 348 347 348 348 348 348 347 347 347 349 350 349 348 349 350 349 349 348 348 349 351 353 356 359 0 1 3 5 6 6 8 11 11 11
316 318 320 324 326 329 330 330 330 329 329 330 330 331 332 333 334 335 336 337 337 338 339 339 339 339 339 339 340 341 343 344 344 345 345 345 346 347 349 350 350 350 350 350 350 350 350 350 350 350 349 349 349 348 348 348 348 348 348 347 347 349 349 349 349 349 350 350 349 348 349 349 350 352 356 359 1 2 3 5 5 6 8 10 11
317 319 321 324 327 329 329 329 329 329 329 329 330 331 332 333 334 335 336 336 337 338 339 339 338 338 338 339 340 341 343 343 344 345 345 345 346 348 349 350 351 351 350 350 350 350 350 350 349 349 349 349 349 349 349 349 349 349 349 348 347 347 348 349 350 350 350 350 350 349 349 349 349 350 352 355 359 1 2 4 5 6 7 8 10
317 319 322 325 327 329 329 328 328 328 328 329 330 331 332 333 334 334 335 336 337 338 339 338 338 338 338 339 340 341 342 343 344 345 345 345 346 348 350 351 351 352 351 350 350 349 349 349 349 349 350 350 349 349 350 350 350 350 350 349 348 348 347 348 349 350 350 350 350 350 350 349 349 349 350 351 354 358 1 3 5 6 7 7 8
317 319 323 325 327 328 328 327 327 327 328 328 329 331 332 333 333 334 335 336 337 338 338 338 338 337 337 339 340 341 342 343 344 345 345 345 346 348 350 351 352 352 352 351 350 349 349 349 349 350 350 350 350 350 350 350 351 351 351 350 350 349 348 347 347 348 350 351 351 351 351 350 349 349 349 350 351 353 357 0 3 6 7 7 7
317 320 323 326 327 328 327 327 326 327 327 328 329 330 331 332 333 334 335 336 337 338 337 337 337 337 337 339 340 341 342 343 344 345 345 346 346 348 349 350 351 352 352 351 350 350 350 350 350 350 350 350 351 350 350 351 351 351 351 352 351 350 349 349 348 348 348 350 351 352 352 351 351 350 349 349 349 350 352 356 0 4 6 7 7
319 322 324 326 327 326 326 326 326 326 327 328 329 330 331 332 333 334 335 336 337 337 337 337 336 336 337 339 340 342 343 343 345 345 346 346 347 348 349 349 350 350 351 351 351 351 351 350 350 350 350 350 351 351 351 351 351 352 352 352 352 352 351 350 349 349 348 349 350 351 352 352 352 351 350 349 348 348 349 351 355 360 4 7 8
320 323 325 326 326 325 325 325 325 326 326 328 329 330 331 332 333 334 335 336 336 336 336 336 336 336 337 339 341 342 343 343 344 346 346 346 347 348 348 348 348 349 350 351 351 351 351 351 350 350 349 349 350 351 351 351 351 352 352 352 352 353 353 352 351 350 349 349 349 350 351 351 352 352 352 350 349 348 348 348 350 354 359 3 7
321 323 324 325 324 324 324 324 324 325 326 327 328 329 330 331 332 333 334 335 335 335 335 335 335 336 338 339 341 341 342 343 344 345 345 345 347 348 348 348 348 348 349 350 351 351 351 351 350 350 349 349 349 350 350 351 351 351 352 352 352 352 353 353 352 351 351 350 349 349 349 351 351 352 352 351 350 348 347 346 347 348 352 358 3
321 322 323 324 323 323 323 323 324 325 326 327 328 329 330 331 332 333 334 334 335 335 335 335 335 336 338 339 340 341 341 342 344 345 345 345 346 348 348 348 348 348 349 349 350 350 350 350 350 350 349 349 349 349 349 350 351 351 351 352 352 352 352 352 353 352 352 351 350 349 349 349 350 351 352 352 350 349 347 345 345 345 348 351 357
320 322 323 323 322 322 322 323 324 325 326 327 328 329 330 331 332 333 334 334 334 334 334 334 335 336 338 339 340 341 341 342 344 345 345 345 346 348 349 348 347 347 348 348 349 349 350 349 349 349 349 348 348 348 348 349 350 350 350 351 351 352 352 352 352 353 353 352 351 350 349 348 349 350 351 351 351 350 348 345 343 342 344 347 351
320 322 322 322 321 321 322 322 323 324 326 326 327 328 329 330 331 332 333 333 334 334 334 334 335 337 338 340 340 341 341 342 344 345 345 345 346 348 349 349 347 347 347 347 347 348 349 349 349 349 348 348 347 347 347 348 349 349 350 350 350 350 351 352 352 352 352 353 352 351 350 349 348 348 349 351 351 351 349 347 344 341 340 343 347
320 321 321 320 320 320 321 322 323 324 325 326 327 328 329 330 331 332 332 333 333 333 333 334 336 337 339 340 340 340 341 342 344 345 345 345 346 348 349 348 347 346 345 346 346 347 348 348 348 348 348 347 347 346 346 347 347 348 349 349 349 349 350 350 351 351 352 352 352 352 351 350 349 348 347 349 351 351 351 349 345 341 338 339 343
320 319 319 319 319 320 320 322 323 323 324 325 326 328 329 330 331 332 332 333 333 333 333 334 336 337 339 340 340 340 341 342 344 345 345 345 346 347 348 348 347 345 345 345 345 346 346 347 348 348 348 347 346 346 346 346 346 347 348 348 348 348 348 348 348 349 350 351 351 351 351 351 350 349 347 347 348 350 350 350 347 344 339 337 339
318 317 318 318 318 319 320 321 322 323 324 325 326 327 329 330 331 331 332 332 332 332 333 334 336 337 338 339 339 340 341 342 344 345 344 344 345 346 347 347 346 345 344 344 344 345 346 346 347 347 347 347 347 346 345 345 345 346 346 346 346 346 346 346 346 347 347 348 349 349 350 350 350 349 348 347 346 346 348 349 349 347 343 338 336
315 316 316 317 317 319 320 320 321 323 324 325 326 327 329 330 330 331 331 331 331 331 333 334 336 337 338 339 339 340 341 342 344 344 344 344 344 345 346 346 346 345 344 344 344 345 345 346 346 346 346 347 346 346 345 345 345 344 344 344 344 344 344 344 344 344 344 344 345 346 347 348 348 348 348 347 346 344 344 346 348 348 346 342 336
314 314 315 316 317 318 319 320 321 323 324 325 326 327 329 330 330 331 331 331 330 331 333 334 336 337 338 339 339 340 341 342 344 344 344 343 344 345 346 346 345 344 344 344 344 345 345 345 346 346 345 345 345 345 344 344 343 343 343 343 343 342 342 342 342 342 342 341 341 342 342 343 345 345 345 345 344 344 343 343 344 345 345 344 339
313 313 315 316 317 317 318 320 321 323 324 325 326 328 329 329 330 330 330 330 330 332 333 334 336 337 338 338 339 340 341 342 344 344 343 343 343 344 345 345 344 344 344 344 344 345 345 345 345 345 345 345 344 344 343 342 342 341 341 341 340 340 340 339 339 339 339 339 339 339 339 339 340 341 342 342 342 342 341 340 340 341 341 342 341
312 313 314 315 316 317 319 320 321 323 324 325 326 328 329 329 329 330 329 329 330 332 333 334 336 337 338 338 339 340 341 342 343 344 343 343 343 343 344 344 344 343 344 344 345 345 345 345 345 344 344 344 343 343 342 341 340 339 339 339 339 338 338 337 337 337 337 337 337 336 336 336 336 337 339 340 340 339 339 338 337 336 336 337 339
312 313 314 315 316 317 319 320 321 323 324 325 327 328 328 329 329 329 328 329 331 332 333 334 336 337 338 338 339 340 341 342 343 343 343 342 342 343 343 343 343 343 344 344 345 345 344 344 344 344 344 343 342 341 341 340 339 338 338 338 338 338 337 337 337 336 336 336 336 335 335 334 334 334 335 336 337 337 336 334 333 332 332 333 334
312 312 313 314 316 317 319 320 321 323 324 326 327 327 328 328 328 327 327 329 331 332 333 335 336 337 337 338 339 340 341 342 343 343 342 342 341 342 342 343 343 343 344 344 344 344 344 344 344 344 343 342 341 340 340 339 339 338 338 338 338 338 337 337 336 336 336 335 335 335 334 333 332 332 331 332 333 334 333 332 330 329 329 329 329
311 312 313 314 316 317 319 320 321 323 325 326 326 327 328 328 327 326 328 330 331 332 333 335 336 336 337 338 339 340 341 342 342 342 341 341 341 341 341 342 343 343 344 344 344 344 343 343 343 343 342 341 340 340 339 339 339 338 338 338 337 337 337 336 336 335 335 335 335 335 334 334 332 331 330 329 329 330 331 331 329 327 325 325 325
310 312 313 315 316 317 319 320 322 323 325 325 326 327 327 326 325 326 328 330 331 332 333 335 336 336 337 338 339 340 341 342 342 342 341 340 340 340 341 342 343 344 344 344 344 343 343 342 342 342 342 341 341 340 339 339 338 338 337 337 337 337 336 336 336 335 335 335 335 335 335 334 333 332 330 328 327 327 327 328 328 326 324 322 321
Height
10528 10523 10517 10512 10506 10500 10493 10486 10479 10471 10463 10454 10445 10436 10427 10417 10407 10397 10385 10373 10361 10347 10334 10320 10307 10294 10280 10265 10250 10233 10215 10198 10180 10163 10147 10132 10117 10102 10087 10073 10059 10045 10033 10022 10011 10001 9991 9982 9973 9963 9954 9946 9938 9930 9923 9915 9906 9899 9890 9881 9872 9862 9853 9845 9838 9831 9826 9821 9815 9808 9803 9800 9797 9792 9788 9785 9783 9780 9777 9774 9773 9771 9770 9770 9771
10522 10516 10511 10505 10499 10492 10486 10478 10471 10463 10454 10445 10436 10427 10418 10408 10397 10386 10374 10362 10350 10336 10323 10309 10296 10283 10269 10255 10239 10222 10204 10186 10169 10152 10136 10122 10107 10092 10076 10061 10046 10033 10020 10009 9999 9989 9980 9971 9963 9954 9945 9937 9929 9920 9912 9905 9897 9888 9880 9872 9863 9853 9844 9835 9829 9822 9815 9809 9804 9798 9792 9789 9786 9782 9777 9772 9769 9768 9764 9761 9760 9758 9757 9757 9759
10515 10510 10504 10498 10492 10485 10478 10470 10462 10454 10445 10437 10428 10419 10409 10398 10387 10376 10364 10351 10338 10325 10313 10300 10287 10273 10259 10244 10227 10210 10193 10175 10158 10142 10127 10112 10097 10082 10066 10051 10036 10023 10011 9999 9989 9979 9970 9961 9953 9945 9937 9928 9920 9913 9904 9896 9888 9880 9872 9863 9854 9845 9836 9827 9820 9813 9807 9800 9793 9787 9781 9777 9774 9772 9769 9764 9758 9755 9753 9751 9749 9747 9746 9745 9746
10508 10503 10497 10491 10484 10477 10470 10462 10454 10446 10437 10429 10420 10410 10400 10389 10378 10366 10353 10341 10328 10315 10303 10290 10277 10263 10248 10232 10215 10198 10181 10165 10148 10133 10118 10103 10088 10072 10057 10042 10029 10016 10003 9992 9981 9970 9961 9952 9944 9936 9929 9921 9912 9905 9897 9888 9880 9871 9863 9855 9846 9837 9829 9821 9813 9806 9800 9793 9785 9779 9773 9768 9763 9759 9758 9756 9751 9745 9741 9739 9739 9738 9736 9734 9733
10502 10496 10490 10484 10477 10470 10462 10454 10446 10438 10430 10421 10412 10401 10391 10380 10368 10356 10344 10331 10319 10306 10293 10280 10267 10253 10237 10221 10205 10188 10171 10155 10139 10125 10111 10095 10079 10064 10049 10036 10023 10010 9997 9985 9973 9963 9953 9944 9935 9927 9920 9913 9905 9897 9889 9880 9872 9864 9856 9847 9839 9831 9822 9814 9807 9800 9793 9786 9779 9772 9766 9762 9757 9751 9747 9745 9744 9739 9734 9729 9727 9728 9728 9725 9721
10495 10489 10483 10477 10469 10462 10454 10446 10438 10430 10422 10413 10403 10393 10382 10370 10358 10346 10334 10322 10309 10296 10284 10271 10257 10242 10227 10211 10195 10179 10162 10146 10131 10117 10103 10087 10072 10057 10042 10029 10016 10003 9991 9979 9967 9956 9946 9937 9928 9919 9911 9904 9896 9889 9881 9873 9865 9857 9849 9840 9832 9824 9816 9808 9800 9793 9787 9781 9774 9766 9760 9755 9751 9746 9741 9735 9732 9731 9728 9723 9719 9717 9718 9716 9713
10489 10483 10476 10469 10462 10455 10447 10439 10431 10422 10414 10404 10394 10384 10372 10361 10349 10337 10325 10313 10300 10288 10275 10261 10247 10232 10217 10202 10186 10169 10153 10137 10122 10108 10093 10078 10064 10050 10035 10021 10008 9996 9984 9972 9961 9951 9941 9931 9922 9914 9905 9897 9889 9881 9874 9867 9859 9852 9844 9835 9826 9817 9809 9801 9794 9787 9780 9774 9768 9762 9755 9749 9744 9740 9737 9732 9727 9722 9719 9716 9712 9709 9708 9708 9705
10482 10476 10469 10462 10455 10447 10439 10431 10423 10414 10405 10395 10385 10375 10364 10352 10341 10329 10317 10304 10292 10279 10266 10252 10238 10223 10208 10192 10175 10159 10143 10128 10113 10099 10084 10069 10056 10042 10029 10015 10002 9990 9977 9966 9955 9945 9936 9927 9918 9909 9901 9894 9887 9879 9870 9862 9853 9845 9837 9829 9821 9812 9803 9795 9787 9781 9774 9767 9761 9755 9750 9744 9738 9733 9729 9726 9723 9719 9714 9710 9705 9701 9699 9699 9698
10476 10469 10462 10455 10448 10440 10432 10424 10415 10406 10397 10387 10377 10366 10355 10344 10332 10320 10308 10296 10284 10271 10258 10244 10230 10214 10199 10182 10166 10149 10133 10118 10104 10090 10075 10061 10047 10033 10020 10008 9996 9984 9972 9961 9951 9942 9932 9922 9914 9905 9897 9890 9883 9877 9869 9860 9851 9840 9830 9821 9814 9807 9799 9791 9783 9776 9769 9763 9756 9750 9744 9740 9734 9728 9722 9718 9715 9712 9709 9706 9702 9697 9692 9690 9689
10469 10462 10456 10448 10440 10433 10424 10416 10408 10398 10389 10379 10369 10358 10347 10336 10324 10312 10299 10287 10275 10262 10249 10235 10221 10205 10189 10172 10156 10140 10124 10109 10095 10081 10067 10052 10039 10025 10012 10000 9988 9977 9966 9956 9946 9937 9928 9919 9910 9901 9893 9886 9878 9871 9864 9857 9850 9841 9831 9820 9811 9803 9795 9788 9781 9773 9767 9760 9753 9746 9740 9735 9730 9726 9720 9715 9710 9707 9703 9700 9697 9694 9689 9685 9682
10462 10456 10449 10441 10433 10425 10417 10409 10400 10391 10381 10372 10362 10351 10339 10328 10316 10303 10291 10279 10266 10253 10240 10226 10211 10195 10179 10163 10147 10131 10115 10100 10087 10073 10059 10045 10031 10018 10005 9993 9981 9970 9960 9950 9941 9932 9923 9915 9906 9898 9890 9883 9876 9869 9861 9854 9846 9838 9830 9821 9812 9802 9793 9785 9778 9771 9765 9758 9751 9744 9737 9730 9725 9720 9716 9710 9706 9702 9698 9695 9691 9688 9685 9682 9678
10455 10449 10442 10434 10426 10418 10410 10402 10393 10383 10374 10364 10354 10343 10332 10320 10308 10295 10283 10271 10258 10245 10231 10217 10202 10186 10170 10154 10138 10123 10107 10093 10080 10066 10052 10038 10024 10011 9999 9987 9975 9965 9955 9945 9937 9928 9920 9912 9904 9896 9888 9881 9874 9867 9860 9853 9844 9834 9826 9819 9812 9803 9794 9786 9778 9770 9763 9756 9749 9742 9736 9729 9722 9715 9710 9706 9701 9697 9693 9689 9686 9683 9680 9677 9674
10449 10442 10435 10428 10420 10412 10403 10395 10386 10376 10367 10357 10347 10335 10324 10312 10299 10288 10276 10263 10250 10237 10223 10208 10193 10177 10162 10146 10131 10116 10101 10088 10074 10060 10046 10032 10019 10006 9994 9982 9971 9960 9950 9941 9932 9924 9916 9909 9901 9893 9886 9878 9871 9864 9857 9850 9843 9834 9825 9817 9809 9801 9793 9785 9778 9770 9762 9754 9747 9740 9734 9729 9723 9716 9709 9703 9699 9694 9689 9685 9681 9678 9675 9671 9668
10442 10435 10428 10421 10413 10405 10396 10388 10379 10370 10360 10350 10339 10327 10315 10304 10292 10280 10268 10255 10242 10229 10215 10200 10184 10170 10155 10140 10125 10111 10097 10084 10070 10057 10043 10029 10016 10003 9991 9979 9968 9956 9946 9937 9928 9920 9912 9905 9897 9890 9883 9875 9868 9861 9854 9847 9841 9835 9827 9818 9808 9799 9791 9783 9775 9767 9759 9752 9745 9739 9733 9727 9722 9716 9711 9704 9698 9693 9689 9683 9678 9674 9671 9667 9664
10435 10429 10422 10414 10407 10398 10390 10381 10372 10363 10353 10342 10331 10319 10308 10296 10284 10272 10260 10248 10235 10222 10207 10192 10177 10163 10149 10134 10120 10106 10092 10080 10067 10053 10040 10027 10013 10000 9988 9977 9965 9954 9943 9933 9924 9916 9908 9900 9893 9886 9879 9872 9865 9859 9852 9845 9839 9833 9829 9822 9813 9803 9793 9784 9776 9768 9761 9754 9747 9740 9734 9727 9721 9715 9710 9705 9699 9693 9688 9684 9679 9674 9670 9666 9662
10429 10422 10415 10408 10400 10392 10383 10374 10365 10355 10346 10335 10323 10312 10300 10289 10277 10266 10253 10241 10228 10214 10199 10185 10171 10157 10143 10128 10115 10101 10088 10075 10063 10049 10036 10023 10009 9997 9985 9974 9962 9951 9941 9931 9921 9912 9903 9894 9887 9880 9873 9867 9861 9854 9848 9842 9836 9829 9824 9820 9815 9809 9801 9792 9781 9772 9764 9756 9749 9742 9735 9729 9722 9714 9708 9702 9696 9691 9685 9680 9676 9672 9667 9663 9659
10422 10416 10409 10401 10393 10385 10376 10367 10358 10348 10338 10327 10315 10304 10293 10282 10270 10259 10246 10234 10221 10207 10193 10179 10165 10150 10136 10122 10109 10095 10082 10070 10057 10044 10031 10017 10004 9992 9981 9970 9959 9949 9939 9929 9919 9909 9900 9891 9883 9875 9868 9862 9855 9849 9843 9836 9830 9824 9819 9812 9807 9803 9799 9792 9784 9775 9767 9759 9751 9742 9735 9727 9720 9713 9706 9700 9693 9688 9682 9677 9672 9668 9664 9661 9657
10416 10409 10402 10394 10386 10378 10369 10360 10351 10341 10330 10319 10308 10296 10285 10275 10263 10251 10240 10227 10214 10200 10186 10172 10158 10143 10129 10116 10102 10089 10076 10064 10051 10038 10025 10011 9998 9986 9975 9964 9953 9944 9935 9926 9916 9907 9898 9890 9882 9874 9867 9859 9853 9846 9840 9833 9827 9821 9815 9809 9802 9796 9789 9783 9778 9773 9767 9760 9752 9744 9735 9726 9719 9712 9706 9699 9693 9687 9681 9677 9672 9667 9662 9658 9654
10409 10403 10395 10388 10380 10371 10363 10354 10344 10334 10323 10312 10300 10289 10279 10268 10256 10245 10233 10220 10207 10193 10179 10165 10151 10136 10122 10109 10095 10083 10070 10058 10045 10032 10018 10005 9993 9981 9970 9958 9947 9937 9928 9920 9912 9904 9896 9888 9880 9873 9866 9859 9851 9845 9838 9832 9826 9820 9814 9808 9802 9795 9788 9781 9776 9771 9765 9759 9752 9744 9736 9728 9720 9712 9706 9699 9694 9687 9681 9675 9671 9667 9662 9657 9653
10403 10396 10389 10381 10373 10365 10356 10347 10337 10327 10316 10304 10293 10283 10272 10261 10250 10239 10226 10214 10200 10187 10173 10158 10144 10130 10116 10103 10090 10077 10065 10052 10039 10026 10013 10000 9988 9976 9965 9954 9944 9933 9924 9915 9907 9900 9892 9885 9877 9870 9863 9856 9849 9843 9837 9832 9826 9821 9815 9809 9803 9796 9790 9784 9778 9772 9766 9760 9753 9746 9738 9730 9722 9714 9706 9699 9693 9688 9682 9676 9670 9665 9662 9658 9654
10397 10389 10382 10375 10367 10358 10349 10340 10330 10320 10309 10298 10287 10277 10266 10255 10244 10232 10220 10207 10194 10181 10167 10152 10138 10124 10111 10098 10085 10072 10061 10048 10036 10022 10009 9997 9985 9973 9962 9951 9941 9931 9923 9914 9906 9897 9890 9882 9875 9867 9860 9854 9847 9841 9835 9830 9825 9821 9816 9811 9805 9799 9793 9786 9779 9771 9765 9758 9751 9744 9737 9729 9722 9715 9707 9701 9694 9688 9684 9679 9673 9667 9662 9657 9653
10390 10383 10376 10368 10360 10352 10343 10333 10324 10313 10302 10291 10280 10270 10260 10249 10238 10226 10214 10201 10188 10174 10160 10146 10132 10118 10105 10093 10081 10069 10057 10046 10033 10021 10008 9995 9983 9972 9961 9950 9939 9930 9921 9913 9905 9897 9889 9882 9874 9867 9859 9852 9846 9841 9835 9829 9823 9818 9813 9809 9804 9799 9793 9786 9780 9772 9764 9756 9749 9743 9735 9728 9721 9715 9709 9703 9697 9690 9685 9680 9675 9670 9665 9659 9654
10384 10377 10369 10361 10353 10345 10336 10326 10316 10305 10294 10284 10274 10263 10253 10242 10231 10220 10207 10194 10181 10168 10154 10140 10127 10114 10101 10089 10078 10066 10055 10043 10031 10018 10006 9994 9982 9971 9960 9950 9941 9931 9921 9913 9904 9896 9889 9882 9874 9867 9859 9852 9846 9840 9835 9829 9823 9816 9811 9806 9801 9796 9791 9785 9779 9772 9764 9756 9749 9742 9735 9729 9723 9717 9712 9706 9701 9696 9689 9683 9676 9671 9665 9660 9655
10378 10370 10363 10355 10347 10338 10329 10319 10309 10298 10288 10277 10267 10257 10247 10236 10225 10213 10201 10188 10176 10163 10150 10137 10124 10111 10099 10087 10075 10064 10052 10040 10028 10016 10004 9992 9980 9970 9960 9950 9941 9932 9922 9913 9904 9895 9887 9880 9873 9866 9859 9852 9846 9839 9834 9829 9823 9816 9810 9804 9798 9793 9788 9782 9777 9770 9764 9757 9750 9743 9737 9731 9726 9720 9715 9710 9705 9700 9693 9686 9679 9672 9666 9661 9656
10371 10364 10356 10349 10341 10332 10322 10312 10301 10291 10281 10271 10261 10251 10241 10230 10219 10207 10196 10184 10172 10159 10146 10133 10121 10108 10096 10084 10073 10061 10049 10037 10025 10013 10002 9990 9979 9969 9958 9949 9939 9930 9920 9911 9902 9894 9886 9878 9870 9863 9857 9850 9844 9837 9831 9826 9822 9816 9809 9802 9797 9791 9785 9779 9774 9769 9763 9758 9752 9746 9740 9734 9728 9723 9718 9712 9705 9698 9692 9685 9680 9674 9668 9662 9657
10365 10358 10350 10342 10334 10325 10315 10305 10295 10285 10275 10265 10255 10245 10235 10225 10214 10202 10191 10179 10167 10154 10141 10128 10116 10103 10092 10080 10069 10058 10046 10034 10022 10011 9999 9988 9977 9967 9956 9945 9935 9926 9917 9908 9899 9891 9883 9875 9867 9859 9853 9848 9842 9837 9830 9824 9819 9814 9808 9801 9795 9790 9784 9778 9772 9767 9762 9758 9753 9749 9743 9736 9730 9724 9718 9712 9705 9698 9692 9686 9680 9675 9669 9664 9659
10359 10352 10344 10336 10327 10318 10308 10298 10288 10279 10269 10259 10249 10239 10229 10219 10208 10197 10185 10174 10161 10149 10136 10123 10110 10098 10087 10075 10064 10052 10041 10030 10018 10005 9993 9982 9971 9960 9949 9938 9927 9918 9910 9902 9894 9886 9878 9871 9864 9857 9852 9847 9842 9837 9830 9823 9816 9811 9806 9800 9794 9788 9783 9779 9773 9767 9762 9757 9753 9748 9744 9738 9731 9724 9718 9712 9706 9701 9695 9689 9683 9677 9671 9666 9661
10352 10345 10338 10329 10320 10311 10301 10292 10282 10273 10263 10254 10244 10234 10224 10213 10202 10191 10180 10169 10157 10144 10132 10119 10107 10095 10083 10072 10060 10049 10037 10025 10013 10000 9987 9974 9962 9951 9941 9931 9921 9912 9904 9896 9889 9882 9875 9868 9861 9855 9848 9842 9836 9831 9826 9820 9814 9807 9802 9797 9792 9786 9781 9776 9772 9767 9761 9756 9751 9746 9741 9737 9732 9726 9720 9713 9708 9702 9697 9691 9686 9681 9675 9669 9663
10346 10339 10331 10322 10313 10304 10294 10285 10276 10267 10258 10248 10238 10229 10218 10208 10197 10186 10175 10163 10152 10139 10127 10115 10103 10090 10078 10067 10056 10045 10033 10022 10010 9998 9986 9974 9962 9950 9939 9929 9920 9911 9903 9895 9887 9880 9874 9867 9860 9853 9845 9838 9831 9825 9820 9815 9810 9805 9799 9794 9790 9784 9779 9773 9769 9765 9759 9754 9749 9744 9739 9735 9730 9726 9722 9716 9710 9704 9698 9693 9688 9683 9678 9673 9667
10340 10332 10324 10315 10306 10297 10288 10279 10270 10261 10252 10242 10233 10223 10213 10203 10192 10181 10170 10158 10147 10135 10122 10110 10097 10085 10073 10061 10050 10039 10028 10018 10007 9997 9986 9975 9964 9952 9941 9931 9921 9911 9903 9895 9887 9879 9872 9866 9859 9853 9846 9839 9832 9826 9820 9814 9808 9803 9798 9793 9788 9784 9779 9773 9768 9763 9759 9754 9749 9744 9739 9734 9729 9725 9721 9717 9712 9706 9701 9696 9690 9685 9680 9675 9670
10333 10326 10317 10308 10300 10291 10282 10273 10264 10255 10246 10237 10227 10218 10208 10197 10187 10176 10165 10154 10142 10130 10118 10105 10093 10081 10070 10059 10048 10037 10026 10016 10006 9995 9985 9974 9964 9953 9941 9931 9921 9912 9902 9894 9886 9879 9873 9866 9860 9853 9847 9841 9834 9828 9822 9816 9810 9804 9798 9793 9788 9783 9778 9773 9768 9763 9758 9753 9749 9744 9740 9735 9730 9725 9720 9717 9713 9709 9704 9699 9694 9688 9682 9677 9672
10326 10319 10310 10302 10293 10285 10276 10268 10259 10250 10241 10231 10222 10213 10203 10192 10182 10171 10160 10149 10137 10125 10113 10101 10089 10077 10067 10057 10047 10036 10025 10014 10004 9993 9982 9971 9962 9952 9942 9932 9922 9912 9904 9895 9888 9881 9875 9868 9861 9854 9847 9841 9835 9829 9823 9817 9811 9806 9800 9793 9788 9783 9778 9774 9769 9764 9759 9754 9749 9744 9739 9735 9730 9726 9721 9716 9712 9709 9705 9700 9695 9690 9685 9680 9675
10319 10312 10303 10295 10287 10279 10270 10262 10253 10244 10235 10226 10217 10207 10197 10187 10177 10166 10155 10144 10132 10120 10109 10098 10087 10076 10065 10055 10045 10034 10023 10011 10000 9988 9977 9967 9958 9949 9941 9933 9924 9915 9906 9898 9890 9882 9875 9868 9861 9855 9848 9842 9835 9829 9823 9817 9811 9806 9801 9795 9789 9784 9779 9774 9769 9765 9760 9755 9749 9744 9739 9734 9730 9726 9722 9717 9712 9708 9704 9701 9697 9692 9687 9682 9677
10312 10305 10297 10289 10281 10273 10265 10256 10248 10239 10230 10221 10212 10202 10192 10182 10172 10161 10150 10139 10127 10116 10106 10095 10084 10074 10064 10053 10042 10030 10019 10007 9995 9983 9972 9962 9953 9944 9937 9930 9924 9917 9910 9902 9893 9883 9875 9868 9861 9855 9848 9842 9835 9829 9823 9817 9811 9805 9800 9795 9789 9783 9778 9773 9768 9763 9759 9754 9749 9744 9739 9735 9730 9725 9721 9717 9713 9708 9704 9700 9697 9693 9689 9684 9680
10306 10298 10290 10282 10275 10267 10259 10251 10242 10234 10225 10216 10206 10197 10187 10177 10167 10156 10145 10134 10123 10113 10102 10090 10079 10069 10060 10050 10039 10027 10016 10004 9993 9981 9970 9960 9950 9941 9932 9926 9920 9914 9908 9901 9893 9885 9876 9868 9861 9855 9848 9842 9836 9830 9823 9817 9812 9806 9800 9794 9789 9783 9777 9772 9767 9762 9758 9753 9749 9744 9739 9735 9730 9726 9721 9717 9713 9709 9704 9700 9696 9693 9689 9686 9682
10299 10291 10284 10276 10269 10261 10253 10245 10237 10228 10219 10210 10201 10192 10182 10172 10161 10151 10140 10129 10119 10109 10099 10089 10078 10066 10056 10046 10035 10025 10015 10005 9994 9983 9972 9961 9952 9942 9933 9925 9917 9911 9904 9897 9890 9883 9876 9869 9861 9854 9848 9842 9836 9830 9824 9818 9812 9806 9801 9795 9790 9784 9779 9773 9767 9762 9757 9752 9748 9744 9739 9734 9730 9725 9721 9718 9714 9710 9706 9701 9697 9693 9690 9687 9683
10292 10285 10278 10270 10263 10255 10247 10240 10231 10223 10214 10205 10196 10186 10177 10167 10157 10147 10136 10126 10116 10106 10095 10085 10076 10065 10055 10044 10034 10024 10015 10006 9997 9986 9975 9964 9955 9945 9936 9927 9918 9909 9902 9895 9887 9880 9874 9867 9860 9853 9847 9840 9834 9829 9823 9817 9811 9806 9800 9795 9790 9785 9780 9775 9769 9764 9758 9753 9748 9743 9739 9734 9730 9725 9721 9717 9713 9710 9707 9703 9698 9694 9691 9687 9684
10286 10279 10272 10264 10257 10249 10242 10234 10226 10217 10208 10199 10190 10181 10172 10163 10153 10143 10133 10122 10112 10102 10091 10080 10070 10061 10052 10041 10031 10022 10013 10003 9994 9985 9976 9966 9956 9945 9935 9925 9916 9908 9901 9893 9887 9880 9872 9866 9859 9852 9846 9839 9833 9827 9822 9816 9811 9805 9800 9794 9789 9784 9779 9774 9770 9764 9759 9754 9748 9743 9739 9734 9730 9725 9721 9717 9713 9709 9706 9703 9699 9695 9691 9688 9685
10280 10273 10265 10258 10251 10243 10236 10228 10220 10211 10203 10194 10185 10177 10168 10158 10149 10139 10128 10118 10108 10097 10086 10076 10065 10056 10046 10035 10025 10016 10007 9998 9989 9979 9969 9960 9952 9942 9933 9923 9914 9906 9898 9891 9885 9878 9872 9865 9858 9851 9845 9838 9832 9826 9821 9815 9810 9804 9799 9794 9788 9783 9778 9773 9768 9763 9759 9754 9749 9743 9738 9734 9730 9726 9721 9717 9713 9709 9706 9703 9699 9696 9692 9689 9685
10273 10266 10259 10252 10244 10237 10230 10222 10214 10206 10198 10189 10181 10172 10163 10154 10144 10134 10124 10114 10104 10093 10083 10072 10062 10052 10042 10032 10021 10011 10001 9992 9983 9973 9964 9955 9947 9939 9930 9922 9912 9904 9896 9889 9882 9876 9870 9864 9857 9850 9844 9837 9831 9825 9820 9814 9809 9804 9798 9793 9788 9782 9777 9773 9768 9763 9758 9754 9749 9744 9739 9734 9730 9726 9722 9718 9714 9709 9706 9702 9699 9696 9693 9689 9686
10266 10259 10252 10245 10239 10231 10224 10216 10209 10201 10193 10184 10176 10167 10158 10149 10139 10129 10119 10109 10099 10089 10080 10071 10060 10050 10039 10029 10019 10009 10000 9990 9980 9971 9962 9954 9945 9937 9929 9921 9913 9904 9896 9889 9881 9874 9868 9862 9856 9850 9843 9837 9831 9825 9819 9814 9808 9803 9797 9792 9787 9781 9776 9771 9766 9762 9758 9753 9749 9744 9740 9735 9730 9725 9721 9717 9714 9710 9706 9702 9699 9696 9693 9690 9687
10260 10253 10246 10240 10233 10226 10218 10211 10203 10195 10188 10179 10171 10162 10154 10144 10134 10124 10114 10104 10094 10085 10076 10068 10059 10049 10038 10028 10018 10008 9999 9990 9980 9971 9961 9953 9945 9937 9928 9921 9913 9905 9897 9889 9881 9874 9867 9861 9855 9849 9843 9837 9831 9824 9818 9812 9807 9801 9796 9791 9786 9780 9775 9770 9765 9760 9756 9752 9748 9743 9739 9735 9731 9726 9721 9717 9713 9709 9706 9702 9699 9696 9693 9690 9687
10254 10247 10241 10234 10227 10220 10213 10206 10198 10190 10182 10174 10166 10157 10148 10139 10129 10119 10109 10099 10090 10080 10072 10063 10054 10046 10036 10026 10016 10007 9997 9988 9979 9970 9960 9952 9943 9935 9927 9920 9912 9905 9897 9889 9881 9874 9866 9859 9853 9847 9842 9836 9830 9824 9818 9812 9806 9800 9795 9790 9785 9780 9775 9769 9764 9759 9754 9749 9746 9742 9738 9734 9730 9725 9721 9716 9712 9708 9705 9702 9698 9695 9692 9689 9687
10248 10242 10235 10229 10222 10215 10208 10200 10193 10185 10177 10169 10160 10152 10143 10133 10123 10114 10104 10095 10085 10077 10068 10058 10049 10040 10031 10022 10013 10003 9995 9986 9977 9967 9958 9950 9941 9933 9926 9918 9910 9903 9895 9888 9880 9873 9866 9858 9851 9845 9839 9833 9828 9822 9816 9811 9805 9799 9794 9788 9783 9778 9773 9768 9763 9758 9753 9747 9743 9739 9735 9732 9728 9724 9720 9716 9712 9708 9704 9700 9697 9694 9691 9688 9685
10242 10236 10230 10223 10217 10210 10202 10195 10187 10180 10172 10163 10155 10146 10137 10128 10118 10108 10099 10090 10081 10073 10065 10055 10046 10036 10027 10018 10008 9999 9991 9982 9973 9964 9955 9947 9939 9931 9923 9915 9908 9901 9893 9886 9879 9872 9865 9858 9851 9844 9837 9831 9826 9820 9814 9809 9803 9798 9792 9787 9782 9777 9771 9766 9762 9757 9752 9747 9742 9737 9733 9729 9725 9722 9719 9715 9711 9707 9703 9699 9696 9693 9690 9687 9685
10236 10231 10224 10218 10211 10204 10197 10190 10182 10174 10166 10158 10149 10141 10131 10122 10113 10104 10094 10085 10077 10069 10061 10052 10043 10034 10024 10015 10005 9996 9987 9978 9969 9960 9951 9943 9935 9927 9920 9912 9905 9898 9891 9885 9878 9870 9864 9857 9850 9843 9836 9829 9823 9818 9812 9806 9800 9795 9790 9785 9780 9775 9769 9764 9759 9755 9750 9745 9740 9735 9731 9727 9723 9720 9716 9713 9710 9706 9703 9699 9695 9692 9689 9687 9684
10231 10225 10219 10213 10206 10199 10191 10184 10177 10169 10160 10152 10143 10135 10126 10117 10108 10098 10090 10081 10073 10065 10057 10048 10039 10030 10021 10012 10002 9993 9984 9975 9966 9957 9948 9940 9932 9924 9917 9909 9902 9894 9888 9882 9875 9869 9862 9855 9848 9841 9834 9827 9821 9815 9809 9804 9798 9792 9787 9782 9776 9771 9766 9761 9756 9752 9747 9743 9738 9734 9729 9725 9720 9717 9714 9711 9708 9705 9701 9698 9695 9691 9688 9685 9683
10225 10219 10213 10207 10200 10193 10186 10179 10171 10163 10155 10146 10138 10129 10120 10111 10102 10093 10085 10077 10069 10061 10053 10044 10036 10027 10017 10008 10000 9990 9981 9972 9963 9954 9946 9937 9929 9921 9914 9906 9899 9892 9885 9878 9872 9866 9859 9853 9846 9839 9832 9825 9818 9812 9806 9800 9795 9789 9783 9778 9773 9768 9763 9758 9753 9748 9744 9739 9735 9731 9727 9722 9718 9714 9710 9707 9705 9702 9699 9696 9693 9690 9687 9684 9681
10219 10214 10208 10201 10194 10188 10180 10173 10166 10158 10149 10141 10132 10123 10115 10106 10097 10089 10081 10074 10066 10057 10049 10040 10032 10023 10014 10005 9996 9987 9978 9969 9960 9951 9942 9934 9926 9918 9910 9903 9896 9889 9882 9876 9869 9863 9856 9849 9843 9836 9829 9822 9815 9809 9803 9797 9791 9785 9779 9774 9768 9763 9758 9753 9749 9744 9740 9736 9731 9728 9724 9720 9715 9711 9708 9704 9701 9699 9696 9694 9691 9688 9685 9682 9679
10214 10208 10202 10195 10189 10182 10175 10167 10160 10152 10144 10135 10126 10118 10109 10100 10092 10085 10078 10070 10062 10054 10046 10037 10028 10020 10011 10002 9992 9983 9975 9966 9957 9948 9939 9931 9922 9914 9907 9900 9893 9886 9879 9872 9866 9859 9852 9846 9839 9832 9825 9819 9812 9806 9800 9794 9788 9782 9776 9771 9765 9760 9754 9749 9744 9740 9736 9731 9727 9723 9720 9716 9712 9708 9705 9701 9698 9695 9693 9690 9688 9685 9683 9680 9677
10208 10202 10196 10189 10183 10176 10169 10161 10154 10146 10138 10129 10121 10112 10103 10095 10087 10081 10074 10066 10057 10049 10041 10033 10025 10016 10007 9998 9990 9981 9971 9962 9953 9945 9936 9928 9919 9911 9904 9897 9890 9882 9875 9868 9861 9854 9848 9841 9835 9828 9822 9816 9809 9803 9797 9791 9785 9779 9774 9768 9762 9756 9751 9746 9741 9736 9732 9727 9723 9720 9716 9713 9709 9705 9702 9698 9694 9691 9688 9686 9684 9682 9680 9677 9675